Location: Poughquag
(41.6090°N, 73.6820°W)
Time: 08:24:01
(UTC-05:00)

Altair - Pass Details

Date: 28 November 2023
Orbit: 1501 x 1682 km, 47.2° (Epoch: 02 March)

Event Time Altitude Azimuth Distance (km) Brightness Sun altitude
Rises 13:00:35 0° 279° (W) 4,719 10.2 24.5°
Reaches altitude 10° 13:03:45 10° 282° (WNW) 3,714 9.7 24.3°
Maximum altitude 13:12:59 62° 3° (N) 1,670 7.8 23.7°
Drops below altitude 10° 13:22:04 10° 84° (E) 3,652 9.3 23.0°
Sets 13:25:09 0° 88° (E) 4,636 9.8 22.7°
